Edwards AFB North Base, CA

7:36 PM PDT on August 24, 2019 (GMT -0700)
Edwards AFB North Base

Weather History for K9L2 - May, 2019

Change the Weather History Date:

Tuesday, May 21, 2019

  Actual Average (KEDW) Record (KEDW)
Temperature  
Mean Temperature 56 °F -  
Max Temperature 62 °F 83 °F 100 °F (2000)
Min Temperature 49 °F 53 °F 44 °F (2002)
Degree Days  
Heating Degree Days 10    
Growing Degree Days 6 (Base 50)    
Moisture  
Dew Point 38 °F    
Average Humidity 53    
Maximum Humidity 76    
Minimum Humidity 36    
Precipitation  
Precipitation 0.00 in - - ()
Sea Level Pressure  
Sea Level Pressure 29.79 in    
Wind  
Wind Speed 16 mph ()    
Max Wind Speed 37 mph    
Max Gust Speed 46 mph    
Visibility 9.9 miles    
Events      
Averages and records for this station are not official NWS values.
T = Trace of Precipitation, MM = Missing Value Source: Averaged Metar Reports

Daily Weather History Graph

Daily Weather History Graph

Search for Another Location

Airport or City:

Astronomy

May. 21, 2019 Rise Set
Actual Time 5:43 AM PDT 7:52 PM PDT
Civil Twilight 5:15 AM PDT 8:21 PM PDT
Nautical Twilight 4:40 AM PDT 8:56 PM PDT
Astronomical Twilight 4:03 AM PDT 9:33 PM PDT
Moon 10:50 PM PDT (5/21) 8:05 AM PDT (5/21)
Length of Visible Light 15h 05m
Length of Day
14h 08m
Waning Gibbous, 91% of the Moon is Illuminated
May 21
Waning Gibbous
May 26
Last Quarter
Jun 3
New
Jun 9
First Quarter
Jun 17
Full

Hourly Weather History & Observations

Time (PDT) Temp. Dew Point Humidity Pressure Visibility Wind Dir Wind Speed Gust Speed Precip Events Conditions
12:58 AM 53.1 °F 34.9 °F 50% 29.89 in 10.0 mi SW 9.2 mph - N/A   Clear
1:58 AM 53.6 °F 35.6 °F 51% 29.84 in 10.0 mi WSW 12.7 mph 19.6 mph N/A   Clear
2:38 AM 53.6 °F 37.4 °F 54% 29.83 in 10.0 mi West 20.7 mph 29.9 mph N/A   Clear
2:51 AM 53.6 °F 37.4 °F 54% 29.83 in 10.0 mi SW 13.8 mph 26.5 mph N/A   Clear
2:58 AM 52.5 °F 37.8 °F 57% 29.83 in 10.0 mi SW 13.8 mph - N/A   Clear
3:58 AM 52.0 °F 37.9 °F 59% 29.80 in 10.0 mi SW 16.1 mph 25.3 mph N/A   Clear
4:58 AM 51.6 °F 38.7 °F 61% 29.83 in 10.0 mi SW 13.8 mph - N/A   Clear
5:43 AM 50.0 °F 42.8 °F 76% 29.83 in 10.0 mi South 12.7 mph 20.7 mph N/A   Mostly Cloudy
5:58 AM 49.1 °F 41.9 °F 76% 29.83 in 10.0 mi South 11.5 mph - N/A   Mostly Cloudy
6:28 AM 50.0 °F 41.0 °F 71% 29.82 in 10.0 mi SSW 15.0 mph - N/A   Scattered Clouds
6:58 AM 52.2 °F 39.4 °F 62% 29.80 in 10.0 mi SW 16.1 mph 25.3 mph N/A   Partly Cloudy
7:58 AM 52.9 °F 39.6 °F 61% 29.80 in 10.0 mi SW 24.2 mph 33.4 mph N/A   Scattered Clouds
8:28 AM 53.6 °F 39.2 °F 58% 29.79 in 10.0 mi SW 25.3 mph 32.2 mph N/A   Scattered Clouds
8:43 AM 53.6 °F 39.2 °F 58% 29.79 in 10.0 mi SW 23.0 mph 32.2 mph N/A   Mostly Cloudy
8:58 AM 54.1 °F 38.5 °F 55% 29.79 in 10.0 mi SW 23.0 mph 29.9 mph N/A   Mostly Cloudy
9:13 AM 55.4 °F 37.4 °F 51% 29.80 in 10.0 mi WSW 20.7 mph 35.7 mph N/A   Scattered Clouds
9:28 AM 55.4 °F 35.6 °F 47% 29.80 in 10.0 mi WSW 17.3 mph 34.5 mph N/A   Mostly Cloudy
9:58 AM 55.8 °F 35.8 °F 47% 29.81 in 10.0 mi WSW 17.3 mph 28.8 mph N/A   Mostly Cloudy
10:01 AM 55.4 °F 35.6 °F 47% 29.80 in 10.0 mi West 16.1 mph 28.8 mph N/A   Mostly Cloudy
10:31 AM 57.2 °F 35.6 °F 44% 29.79 in 10.0 mi WSW 28.8 mph 38.0 mph N/A   Partly Cloudy
10:58 AM 57.9 °F 36.3 °F 44% 29.78 in 10.0 mi WSW 29.9 mph 35.7 mph N/A   Partly Cloudy
11:58 AM 60.8 °F 37.0 °F 41% 29.78 in 10.0 mi WSW 29.9 mph 40.3 mph N/A   Partly Cloudy
12:58 PM 60.8 °F 38.8 °F 44% 29.74 in 10.0 mi WSW 34.5 mph 46.0 mph N/A   Partly Cloudy
1:58 PM 62.1 °F 38.5 °F 42% 29.72 in 10.0 mi West 36.8 mph 42.6 mph N/A   Partly Cloudy
2:58 PM 60.8 °F 36.9 °F 41% 29.72 in 9.0 mi West 34.5 mph 42.6 mph N/A   Partly Cloudy
4:58 PM 61.7 °F 34.3 °F 36% 29.70 in 9.0 mi West 32.2 mph 42.6 mph N/A   Clear
9:59 PM 53.6 °F 35.6 °F 51% 29.71 in 10.0 mi West 12.7 mph 21.9 mph N/A   Clear
10:58 PM 52.5 °F 34.9 °F 51% 29.66 in 10.0 mi West 24.2 mph 31.1 mph N/A   Clear